Date String (YYYY-MM-DD hh:mm:ss) UTC,Instrument flags,absolute air pressure of the measurement (hPa),sample flow rate (lpm),inlet stack bypass flow (lpm),air temperature of the measurement (°C),ambient temperature measured by the external sensor (°C),aerosol sample conditioner tube jacket temperature (°C),OPC LED temperature (°C),internal box temperature (°C),relative humidity of the measurement (%),span deviation,mass concentration of particles derived from Lorenz-Mie calculation of OPC scattering (μg/m³),mass concentration of particles derived from Lorenz-Mie calculation of OPC scattering (μg/m³),mass concentration of particles derived from Lorenz-Mie calculation of OPC scattering (μg/m³)
DateTimeUTC,F1_M11,P_M11,Q1_M11,Q2_M11,T1_M11,T2_M11,T3_M11,T4_M11,T5_M11,U1_M11,ZSPAN_M11,X2_M11,X0_M11,X1_M11
2024-04-16 15:00:00,SystemResetWarning,0820.1,4.99,000.00,023.4,022.7,000.0,031.8,025.2,020.6,0000.0,0000.62,0001.92,0000.27
2024-04-16 15:01:00,SystemResetWarning,0820.2,5.00,000.00,023.4,022.7,000.0,031.8,025.2,020.4,0000.0,0000.64,0002.10,0000.29
2024-04-16 15:02:00,SystemResetWarning,0820.2,5.00,000.00,023.4,022.7,000.0,031.9,025.2,020.4,0000.0,0000.67,0002.59,0000.29
2024-04-16 15:03:00,SystemResetWarning,0820.3,5.01,000.00,023.4,022.7,000.0,031.9,025.3,020.0,0000.0,0000.67,0002.72,0000.29
2024-04-16 15:04:00,SystemResetWarning,0820.3,5.00,000.00,023.4,022.7,000.0,031.9,025.3,020.0,0000.0,0000.70,0003.81,0000.30
2024-04-16 15:05:00,SystemResetWarning,0820.3,5.01,000.00,023.4,022.7,000.0,031.9,025.3,020.4,0000.0,0000.73,0004.15,0000.30
2024-04-16 15:06:00,SystemResetWarning,0820.3,5.00,000.00,023.5,022.7,000.0,031.9,025.3,019.7,0000.0,0000.78,0005.16,0000.29
2024-04-16 15:07:00,SystemResetWarning,0820.3,5.00,000.00,023.5,022.7,000.0,031.9,025.3,019.9,0000.0,0000.80,0005.20,0000.29
2024-04-16 15:08:00,SystemResetWarning,0820.3,5.00,000.00,023.5,022.8,000.0,031.9,025.3,019.7,0000.0,0000.80,0005.24,0000.30
2024-04-16 15:09:00,SystemResetWarning,0820.3,5.00,000.00,023.5,022.8,000.0,031.9,025.3,019.5,0000.0,0000.80,0005.89,0000.30
2024-04-16 15:10:00,SystemResetWarning,0820.3,5.00,000.00,023.5,022.8,000.0,031.9,025.3,018.9,0000.0,0000.76,0006.96,0000.29
2024-04-16 15:11:00,SystemResetWarning,0820.3,4.99,000.00,023.5,022.8,000.0,031.9,025.3,019.0,0000.0,0000.75,0006.96,0000.29
2024-04-16 15:12:00,SystemResetWarning,0820.4,4.99,000.00,023.5,022.8,000.0,031.9,025.3,019.4,0000.0,0000.73,0006.84,0000.28
2024-04-16 15:13:00,SystemResetWarning,0820.4,5.01,000.00,023.5,022.8,000.0,031.9,025.3,019.7,0000.0,0000.72,0006.32,0000.28
2024-04-16 15:14:00,SystemResetWarning,0820.3,5.01,000.00,023.5,022.8,000.0,031.9,025.4,020.1,0000.0,0000.73,0007.21,0000.27
2024-04-16 15:15:00,SystemResetWarning,0820.6,4.99,000.00,023.5,022.8,000.0,031.9,025.4,020.7,0000.0,0000.71,0007.75,0000.27
2024-04-16 15:16:00,SystemResetWarning,0820.4,5.00,000.00,023.5,022.8,000.0,032.0,025.4,020.5,0000.0,0000.72,0008.20,0000.26
2024-04-16 15:17:00,SystemResetWarning,0820.3,5.00,000.00,023.5,022.9,000.0,032.0,025.4,020.2,0000.0,0000.70,0008.09,0000.26
2024-04-16 15:18:00,SystemResetWarning,0820.4,5.00,000.00,023.6,022.9,000.0,032.0,025.4,019.4,0000.0,0000.68,0008.26,0000.27
2024-04-16 15:19:00,SystemResetWarning,0820.3,4.99,000.00,023.6,022.9,000.0,032.0,025.4,019.3,0000.0,0000.68,0008.25,0000.26
2024-04-16 15:20:00,SystemResetWarning,0820.4,5.00,000.00,023.6,022.9,000.0,032.0,025.4,020.1,0000.0,0000.71,0008.04,0000.25
2024-04-16 15:21:00,SystemResetWarning,0820.3,4.99,000.00,023.6,022.9,000.0,032.0,025.5,020.3,0000.0,0000.71,0007.46,0000.25
2024-04-16 15:22:00,SystemResetWarning,0820.4,5.00,000.00,023.6,022.9,000.0,032.0,025.5,020.0,0000.0,0000.71,0007.41,0000.25
2024-04-16 15:23:00,SystemResetWarning,0820.5,5.00,000.00,023.6,022.9,000.0,032.0,025.5,019.5,0000.0,0000.69,0007.35,0000.25
2024-04-16 15:24:00,SystemResetWarning,0820.3,5.00,000.00,023.6,022.9,000.0,032.0,025.5,018.9,0000.0,0000.67,0007.31,0000.25
2024-04-16 15:25:00,SystemResetWarning,0820.5,5.00,000.00,023.6,022.9,000.0,032.0,025.5,019.1,0000.0,0000.66,0006.27,0000.25
2024-04-16 15:26:00,SystemResetWarning,0820.4,5.00,000.00,023.6,022.9,000.0,032.0,025.5,019.1,0000.0,0000.64,0004.40,0000.24
2024-04-16 15:27:00,SystemResetWarning,0820.4,5.00,000.00,023.6,022.9,000.0,032.0,025.5,019.0,0000.0,0000.58,0004.02,0000.23
2024-04-16 15:28:00,SystemResetWarning,0820.8,5.01,000.00,023.6,022.9,000.0,032.1,025.5,018.7,0000.0,0000.56,0003.75,0000.22
2024-04-16 15:29:00,SystemResetWarning,0820.9,5.00,000.00,023.6,022.9,000.0,032.1,025.5,019.0,0000.0,0000.56,0004.03,0000.22
2024-04-16 15:30:00,SystemResetWarning,0821.0,5.00,000.00,023.6,022.9,000.0,032.1,025.5,018.9,0000.0,0000.57,0004.19,0000.22
2024-04-16 15:31:00,SystemResetWarning,0820.6,5.00,000.00,023.7,022.9,000.0,032.1,025.5,018.3,0000.0,0000.55,0004.41,0000.22
2024-04-16 15:32:00,SystemResetWarning,0820.8,5.00,000.00,023.7,023.0,000.0,032.1,025.5,018.1,0000.0,0000.55,0006.23,0000.21
2024-04-16 15:33:00,SystemResetWarning,0820.5,5.01,000.00,023.7,023.0,000.0,032.1,025.5,018.5,0000.0,0000.57,0006.77,0000.21
2024-04-16 15:34:00,SystemResetWarning,0820.7,5.00,000.00,023.7,023.0,000.0,032.1,025.5,018.6,0000.0,0000.59,0007.17,0000.20
2024-04-16 15:35:00,SystemResetWarning,0820.4,5.00,000.00,023.7,023.0,000.0,032.1,025.5,018.2,0000.0,0000.61,0007.49,0000.20
2024-04-16 15:36:00,SystemResetWarning,0820.6,5.00,000.00,023.7,023.0,000.0,032.1,025.5,017.7,0000.0,0000.58,0007.42,0000.20
2024-04-16 15:37:00,SystemResetWarning,0820.6,5.00,000.00,023.7,023.0,000.0,032.1,025.5,017.9,0000.0,0000.58,0007.60,0000.20
2024-04-16 15:38:00,SystemResetWarning,0820.6,5.00,000.00,023.7,023.0,000.0,032.1,025.5,017.7,0000.0,0000.59,0007.45,0000.20
2024-04-16 15:39:00,SystemResetWarning,0820.5,4.99,000.00,023.7,023.0,000.0,032.1,025.5,017.7,0000.0,0000.55,0006.87,0000.20
2024-04-16 15:40:00,SystemResetWarning,0820.5,4.99,000.00,023.7,023.0,000.0,032.1,025.5,017.7,0000.0,0000.52,0006.72,0000.20
2024-04-16 15:41:00,SystemResetWarning,0820.5,5.00,000.00,023.7,023.0,000.0,032.2,025.5,017.9,0000.0,0000.49,0006.88,0000.19
2024-04-16 15:42:00,SystemResetWarning,0820.6,5.00,000.00,023.8,023.1,000.0,032.2,025.6,017.6,0000.0,0000.48,0006.47,0000.19
2024-04-16 15:43:00,SystemResetWarning,0820.6,5.00,000.00,023.8,023.1,000.0,032.2,025.6,017.8,0000.0,0000.47,0004.42,0000.21
2024-04-16 15:44:00,SystemResetWarning,0820.7,5.00,000.00,023.8,023.1,000.0,032.2,025.6,017.6,0000.0,0000.44,0003.81,0000.21
2024-04-16 15:45:00,SystemResetWarning,0820.8,5.00,000.00,023.8,023.1,000.0,032.2,025.6,017.6,0000.0,0000.43,0003.37,0000.22
2024-04-16 15:46:00,SystemResetWarning,0820.8,5.00,000.00,023.8,023.1,000.0,032.2,025.6,017.4,0000.0,0000.44,0004.05,0000.23
2024-04-16 15:47:00,SystemResetWarning,0820.8,5.01,000.00,023.8,023.1,000.0,032.2,025.6,017.0,0000.0,0000.49,0004.63,0000.25
2024-04-16 15:48:00,SystemResetWarning,0820.8,5.00,000.00,023.8,023.1,000.0,032.2,025.6,017.1,0000.0,0000.49,0005.52,0000.26
2024-04-16 15:49:00,SystemResetWarning,0820.8,5.00,000.00,023.8,023.1,000.0,032.2,025.6,017.0,0000.0,0000.48,0004.87,0000.28
2024-04-16 15:50:00,SystemResetWarning,0820.7,5.00,000.00,023.8,023.1,000.0,032.2,025.6,016.7,0000.0,0000.50,0005.22,0000.28
2024-04-16 15:51:00,SystemResetWarning,0820.8,5.00,000.00,023.8,023.1,000.0,032.2,025.6,016.8,0000.0,0000.53,0005.00,0000.29
2024-04-16 15:52:00,SystemResetWarning,0820.8,5.00,000.00,023.8,023.1,000.0,032.2,025.6,016.8,0000.0,0000.53,0004.53,0000.30
2024-04-16 15:53:00,SystemResetWarning,0820.8,5.00,000.00,023.8,023.1,000.0,032.2,025.6,016.9,0000.0,0000.53,0004.56,0000.30
2024-04-16 15:54:00,SystemResetWarning,0820.8,5.00,000.00,023.8,023.1,000.0,032.2,025.6,016.8,0000.0,0000.52,0004.84,0000.29
2024-04-16 15:55:00,SystemResetWarning,0820.9,5.00,000.00,023.8,023.1,000.0,032.2,025.6,017.1,0000.0,0000.56,0005.19,0000.29
2024-04-16 15:56:00,SystemResetWarning,0821.0,5.00,000.00,023.8,023.1,000.0,032.2,025.6,016.7,0000.0,0000.54,0005.14,0000.28
2024-04-16 15:57:00,SystemResetWarning,0821.0,5.00,000.00,023.9,023.1,000.0,032.2,025.6,016.8,0000.0,0000.50,0004.41,0000.27
2024-04-16 15:58:00,SystemResetWarning,0821.0,5.00,000.00,023.9,023.1,000.0,032.2,025.6,016.8,0000.0,0000.45,0003.47,0000.26
2024-04-16 15:59:00,SystemResetWarning,0821.0,5.01,000.00,023.9,023.2,000.0,032.3,025.7,016.7,0000.0,0000.45,0002.32,0000.25
